Time,TemperatureF,DewpointF,PressureIn,WindDirection,WindDirectionDegrees,WindSpeedMPH,WindSpeedGustMPH,Humidity,HourlyPrecipIn,Conditions,Clouds,dailyrainin,SoftwareType,DateUTC
2013-07-20 00:05:00,73.6,63.7,30.16,SW,225,0.0,0.0,71,0.00,,,0.00,WUHU21636XXSP,2013-07-20 05:05:00,
2013-07-20 00:15:00,73.6,63.7,30.16,SW,225,0.0,0.0,71,0.00,,,0.00,WUHU21636XXSP,2013-07-20 05:15:00,
2013-07-20 00:25:00,73.4,63.5,30.16,SW,225,0.0,0.0,71,0.00,,,0.00,WUHU21636XXSP,2013-07-20 05:25:00,
2013-07-20 00:35:00,73.6,63.7,30.16,SW,225,0.0,0.0,72,0.00,,,0.00,WUHU21636XXSP,2013-07-20 05:35:00,
2013-07-20 00:45:00,73.2,63.7,30.16,SW,225,0.0,0.0,73,0.00,,,0.00,WUHU21636XXSP,2013-07-20 05:45:00,
2013-07-20 00:55:00,73.0,63.9,30.16,SW,225,0.0,0.0,73,0.00,,,0.00,WUHU21636XXSP,2013-07-20 05:55:00,
2013-07-20 01:05:00,72.9,63.7,30.16,SW,225,0.0,0.0,73,0.00,,,0.00,WUHU21636XXSP,2013-07-20 06:05:00,
2013-07-20 01:15:00,72.7,63.9,30.16,SW,225,0.0,0.0,74,0.00,,,0.00,WUHU21636XXSP,2013-07-20 06:15:00,
2013-07-20 01:25:00,72.5,64.0,30.16,SW,225,0.0,0.0,75,0.00,,,0.00,WUHU21636XXSP,2013-07-20 06:25:00,
2013-07-20 01:35:00,72.5,64.0,30.16,SW,225,0.0,0.0,75,0.00,,,0.00,WUHU21636XXSP,2013-07-20 06:35:00,
2013-07-20 01:45:00,72.3,63.9,30.16,SW,225,0.0,0.0,75,0.00,,,0.00,WUHU21636XXSP,2013-07-20 06:45:00,
2013-07-20 01:55:00,72.3,63.9,30.16,SW,225,0.0,0.0,75,0.00,,,0.00,WUHU21636XXSP,2013-07-20 06:55:00,
2013-07-20 02:05:00,72.1,63.7,30.16,WSW,247,0.0,0.0,75,0.00,,,0.00,WUHU21636XXSP,2013-07-20 07:05:00,
2013-07-20 02:15:00,71.8,63.3,30.16,SW,225,0.0,0.0,75,0.00,,,0.00,WUHU21636XXSP,2013-07-20 07:15:00,
2013-07-20 02:25:00,71.4,63.3,30.16,SW,225,0.0,0.0,76,0.00,,,0.00,WUHU21636XXSP,2013-07-20 07:25:00,
2013-07-20 02:35:00,71.2,63.1,30.16,SW,225,0.0,0.0,77,0.00,,,0.00,WUHU21636XXSP,2013-07-20 07:35:00,
2013-07-20 02:45:00,71.1,63.3,30.16,SW,225,0.0,0.0,77,0.00,,,0.00,WUHU21636XXSP,2013-07-20 07:45:00,
2013-07-20 02:55:00,71.1,63.3,30.16,SW,225,0.0,0.0,78,0.00,,,0.00,WUHU21636XXSP,2013-07-20 07:55:00,
2013-07-20 03:05:00,70.7,63.3,30.15,SW,225,0.0,0.0,78,0.00,,,0.00,WUHU21636XXSP,2013-07-20 08:05:00,
2013-07-20 03:15:00,70.5,63.1,30.16,SW,225,0.0,0.0,78,0.00,,,0.00,WUHU21636XXSP,2013-07-20 08:15:00,
2013-07-20 03:25:00,70.5,63.1,30.16,SW,225,0.0,0.0,78,0.00,,,0.00,WUHU21636XXSP,2013-07-20 08:25:00,
2013-07-20 03:35:00,70.2,63.1,30.16,SW,225,1.5,2.6,79,0.00,,,0.00,WUHU21636XXSP,2013-07-20 08:35:00,
2013-07-20 03:45:00,70.0,63.5,30.15,SW,225,0.0,1.5,80,0.00,,,0.00,WUHU21636XXSP,2013-07-20 08:45:00,
2013-07-20 03:55:00,69.6,63.1,30.15,SW,225,0.0,0.0,80,0.00,,,0.00,WUHU21636XXSP,2013-07-20 08:55:00,
2013-07-20 04:05:00,69.3,63.1,30.14,SW,225,0.0,1.5,81,0.00,,,0.00,WUHU21636XXSP,2013-07-20 09:05:00,
2013-07-20 04:15:00,68.7,63.0,30.14,WSW,247,3.1,3.1,82,0.00,,,0.00,WUHU21636XXSP,2013-07-20 09:15:00,
2013-07-20 04:25:00,67.8,62.8,30.14,WSW,247,0.0,3.1,84,0.00,,,0.00,WUHU21636XXSP,2013-07-20 09:25:00,
2013-07-20 04:35:00,67.1,62.4,30.15,WSW,247,1.1,1.5,85,0.00,,,0.00,WUHU21636XXSP,2013-07-20 09:35:00,
2013-07-20 04:45:00,67.1,62.4,30.14,WSW,247,3.1,3.1,85,0.00,,,0.00,WUHU21636XXSP,2013-07-20 09:45:00,
2013-07-20 04:55:00,67.1,62.4,30.14,West,270,0.0,3.1,85,0.00,,,0.00,WUHU21636XXSP,2013-07-20 09:55:00,
2013-07-20 05:05:00,67.1,62.4,30.14,West,270,2.2,2.6,84,0.00,,,0.00,WUHU21636XXSP,2013-07-20 10:05:00,
2013-07-20 05:15:00,67.1,62.4,30.13,NNW,337,0.4,3.1,84,0.00,,,0.00,WUHU21636XXSP,2013-07-20 10:15:00,
2013-07-20 05:25:00,67.1,62.1,30.12,NW,315,0.6,3.8,84,0.00,,,0.00,WUHU21636XXSP,2013-07-20 10:25:00,
2013-07-20 05:35:00,66.9,61.9,30.13,NW,315,3.3,3.3,84,0.00,,,0.00,WUHU21636XXSP,2013-07-20 10:35:00,
2013-07-20 05:45:00,67.1,62.1,30.12,NW,315,2.6,3.5,83,0.00,,,0.00,WUHU21636XXSP,2013-07-20 10:45:00,
2013-07-20 05:55:00,66.9,61.5,30.12,NW,315,2.0,2.6,83,0.00,,,0.00,WUHU21636XXSP,2013-07-20 10:55:00,
2013-07-20 06:05:00,66.9,61.5,30.12,NNW,337,0.0,2.0,84,0.00,,,0.00,WUHU21636XXSP,2013-07-20 11:05:00,
2013-07-20 06:15:00,66.9,61.5,30.12,NNW,337,0.0,0.0,83,0.00,,,0.00,WUHU21636XXSP,2013-07-20 11:15:00,
2013-07-20 06:25:00,66.6,61.5,30.12,NW,315,0.0,1.1,84,0.00,,,0.00,WUHU21636XXSP,2013-07-20 11:25:00,
2013-07-20 06:35:00,66.4,61.3,30.13,NW,315,0.0,3.1,84,0.00,,,0.00,WUHU21636XXSP,2013-07-20 11:35:00,
2013-07-20 06:45:00,66.2,61.2,30.13,NW,315,0.0,3.1,84,0.00,,,0.00,WUHU21636XXSP,2013-07-20 11:45:00,
2013-07-20 06:55:00,66.2,61.2,30.13,NW,315,0.8,2.4,84,0.00,,,0.00,WUHU21636XXSP,2013-07-20 11:55:00,
2013-07-20 07:05:00,66.4,61.3,30.13,NW,315,0.6,3.1,84,0.00,,,0.00,WUHU21636XXSP,2013-07-20 12:05:00,
2013-07-20 07:15:00,66.4,61.3,30.12,North,0,1.5,1.5,85,0.00,,,0.00,WUHU21636XXSP,2013-07-20 12:15:00,
2013-07-20 07:25:00,66.6,61.9,30.13,North,0,0.0,3.1,85,0.00,,,0.00,WUHU21636XXSP,2013-07-20 12:25:00,
2013-07-20 07:35:00,66.7,62.1,30.13,North,0,0.0,0.0,85,0.00,,,0.00,WUHU21636XXSP,2013-07-20 12:35:00,
2013-07-20 07:45:00,66.9,62.2,30.13,North,0,3.1,3.1,85,0.00,,,0.00,WUHU21636XXSP,2013-07-20 12:45:00,
2013-07-20 07:55:00,67.3,62.6,30.13,North,0,0.0,3.1,85,0.00,,,0.00,WUHU21636XXSP,2013-07-20 12:55:00,
2013-07-20 08:05:00,67.6,62.6,30.13,North,0,0.0,0.0,84,0.00,,,0.00,WUHU21636XXSP,2013-07-20 13:05:00,
2013-07-20 08:15:00,68.0,62.6,30.13,North,0,0.0,0.6,83,0.00,,,0.00,WUHU21636XXSP,2013-07-20 13:15:00,
2013-07-20 08:25:00,68.4,63.0,30.13,North,0,0.0,1.1,83,0.00,,,0.00,WUHU21636XXSP,2013-07-20 13:25:00,
2013-07-20 08:35:00,68.4,63.0,30.13,North,0,0.0,0.0,83,0.00,,,0.00,WUHU21636XXSP,2013-07-20 13:35:00,
2013-07-20 08:45:00,68.7,63.3,30.13,North,0,0.4,0.4,83,0.00,,,0.00,WUHU21636XXSP,2013-07-20 13:45:00,
2013-07-20 08:55:00,69.1,63.5,30.13,NNE,22,0.0,1.1,83,0.00,,,0.00,WUHU21636XXSP,2013-07-20 13:55:00,
2013-07-20 09:05:00,69.6,63.7,30.13,East,90,2.6,2.6,82,0.00,,,0.00,WUHU21636XXSP,2013-07-20 14:05:00,
2013-07-20 09:16:00,70.2,63.9,30.13,ESE,112,1.5,2.6,81,0.00,,,0.00,WUHU21636XXSP,2013-07-20 14:16:00,
2013-07-20 09:26:00,70.7,64.2,30.13,ESE,112,0.0,2.0,80,0.00,,,0.00,WUHU21636XXSP,2013-07-20 14:26:00,
2013-07-20 09:36:00,71.4,64.0,30.13,ESE,112,1.5,1.5,78,0.00,,,0.00,WUHU21636XXSP,2013-07-20 14:36:00,
2013-07-20 09:46:00,71.8,64.0,30.13,ESE,112,0.0,1.5,76,0.00,,,0.00,WUHU21636XXSP,2013-07-20 14:46:00,
2013-07-20 09:56:00,72.3,64.2,30.13,ESE,112,0.0,0.0,74,0.00,,,0.00,WUHU21636XXSP,2013-07-20 14:56:00,
2013-07-20 10:06:00,73.0,64.6,30.13,SSW,202,0.8,3.1,74,0.00,,,0.00,WUHU21636XXSP,2013-07-20 15:06:00,
2013-07-20 10:16:00,73.6,64.8,30.14,SE,135,4.9,4.9,74,0.00,,,0.00,WUHU21636XXSP,2013-07-20 15:16:00,
2013-07-20 10:26:00,74.1,63.3,30.13,SSW,202,0.4,7.1,69,0.00,,,0.00,WUHU21636XXSP,2013-07-20 15:26:00,
2013-07-20 10:36:00,74.5,62.8,30.13,South,180,0.8,1.1,69,0.00,,,0.00,WUHU21636XXSP,2013-07-20 15:36:00,
2013-07-20 10:46:00,75.0,64.6,30.14,ESE,112,2.4,4.2,70,0.00,,,0.00,WUHU21636XXSP,2013-07-20 15:46:00,
2013-07-20 10:56:00,75.7,64.4,30.14,East,90,4.0,4.0,68,0.00,,,0.00,WUHU21636XXSP,2013-07-20 15:56:00,
2013-07-20 11:06:00,76.5,65.1,30.14,East,90,0.0,4.0,68,0.00,,,0.00,WUHU21636XXSP,2013-07-20 16:06:00,
2013-07-20 11:16:00,76.6,64.8,30.14,SSE,157,0.0,1.5,67,0.00,,,0.00,WUHU21636XXSP,2013-07-20 16:16:00,
2013-07-20 11:26:00,77.0,65.1,30.14,SSE,157,1.3,2.0,67,0.00,,,0.00,WUHU21636XXSP,2013-07-20 16:26:00,
2013-07-20 11:36:00,78.3,67.1,30.14,SSW,202,4.9,8.2,69,0.00,,,0.00,WUHU21636XXSP,2013-07-20 16:36:00,
2013-07-20 11:46:00,79.0,66.0,30.14,South,180,4.2,8.9,65,0.00,,,0.00,WUHU21636XXSP,2013-07-20 16:46:00,
2013-07-20 11:56:00,79.5,65.3,30.14,South,180,4.4,4.9,62,0.00,,,0.00,WUHU21636XXSP,2013-07-20 16:56:00,
2013-07-20 12:06:00,80.2,65.5,30.13,SSW,202,1.7,4.6,61,0.00,,,0.00,WUHU21636XXSP,2013-07-20 17:06:00,
2013-07-20 12:16:00,80.4,65.3,30.14,SSW,202,0.6,6.0,60,0.00,,,0.00,WUHU21636XXSP,2013-07-20 17:16:00,
2013-07-20 12:26:00,81.0,65.7,30.14,SW,225,5.1,5.1,60,0.00,,,0.00,WUHU21636XXSP,2013-07-20 17:26:00,
2013-07-20 12:36:00,81.7,64.8,30.14,SE,135,0.0,5.1,57,0.00,,,0.00,WUHU21636XXSP,2013-07-20 17:36:00,
2013-07-20 12:46:00,82.0,66.7,30.14,SSE,157,7.3,11.4,60,0.00,,,0.00,WUHU21636XXSP,2013-07-20 17:46:00,
2013-07-20 12:56:00,82.8,66.4,30.13,South,180,2.2,11.1,58,0.00,,,0.00,WUHU21636XXSP,2013-07-20 17:56:00,
2013-07-20 13:06:00,83.5,67.1,30.12,SE,135,7.3,12.9,58,0.00,,,0.00,WUHU21636XXSP,2013-07-20 18:06:00,
2013-07-20 13:16:00,84.2,66.7,30.12,SE,135,0.8,10.5,56,0.00,,,0.00,WUHU21636XXSP,2013-07-20 18:16:00,
2013-07-20 13:26:00,85.1,66.6,30.11,SSE,157,3.5,15.6,54,0.00,,,0.00,WUHU21636XXSP,2013-07-20 18:26:00,
2013-07-20 13:36:00,85.6,66.0,30.11,SSE,157,5.1,13.1,52,0.00,,,0.00,WUHU21636XXSP,2013-07-20 18:36:00,
2013-07-20 13:46:00,86.2,65.8,30.11,SSE,157,3.3,14.9,51,0.00,,,0.00,WUHU21636XXSP,2013-07-20 18:46:00,
2013-07-20 13:56:00,87.1,66.7,30.11,SE,135,3.5,10.2,51,0.00,,,0.00,WUHU21636XXSP,2013-07-20 18:56:00,
2013-07-20 14:06:00,87.8,66.2,30.10,SSE,157,7.8,10.9,49,0.00,,,0.00,WUHU21636XXSP,2013-07-20 19:06:00,
2013-07-20 14:16:00,88.5,66.9,30.10,SSE,157,3.3,8.7,49,0.00,,,0.00,WUHU21636XXSP,2013-07-20 19:16:00,
2013-07-20 14:26:00,89.2,66.2,30.09,SSE,157,3.3,4.4,47,0.00,,,0.00,WUHU21636XXSP,2013-07-20 19:26:00,
2013-07-20 14:36:00,89.4,66.9,30.09,SSW,202,3.3,12.7,45,0.00,,,0.00,WUHU21636XXSP,2013-07-20 19:36:00,
2013-07-20 14:46:00,90.0,64.9,30.09,SSE,157,1.3,15.8,44,0.00,,,0.00,WUHU21636XXSP,2013-07-20 19:46:00,
2013-07-20 14:56:00,89.8,66.0,30.09,SSE,157,7.3,13.6,46,0.00,,,0.00,WUHU21636XXSP,2013-07-20 19:56:00,
2013-07-20 15:06:00,90.3,65.8,30.09,SW,225,4.4,10.0,42,0.00,,,0.00,WUHU21636XXSP,2013-07-20 20:06:00,
2013-07-20 15:16:00,90.9,66.4,30.08,SSE,157,4.2,4.2,45,0.00,,,0.00,WUHU21636XXSP,2013-07-20 20:16:00,
2013-07-20 15:26:00,91.8,67.8,30.08,South,180,4.0,10.0,46,0.00,,,0.00,WUHU21636XXSP,2013-07-20 20:26:00,
2013-07-20 15:37:00,92.1,67.5,30.08,South,180,3.1,11.8,45,0.00,,,0.00,WUHU21636XXSP,2013-07-20 20:37:00,
2013-07-20 15:47:00,92.1,67.5,30.07,SW,225,8.2,11.1,44,0.00,,,0.00,WUHU21636XXSP,2013-07-20 20:47:00,
2013-07-20 15:57:00,92.3,66.4,30.07,SSW,202,5.3,11.6,44,0.00,,,0.00,WUHU21636XXSP,2013-07-20 20:57:00,
2013-07-20 16:07:00,92.7,65.3,30.07,SSE,157,0.2,8.7,41,0.00,,,0.00,WUHU21636XXSP,2013-07-20 21:07:00,
2013-07-20 16:17:00,93.0,66.9,30.06,ENE,67,3.5,4.0,42,0.00,,,0.00,WUHU21636XXSP,2013-07-20 21:17:00,
2013-07-20 16:27:00,92.1,66.2,30.06,SSE,157,5.3,5.5,44,0.00,,,0.00,WUHU21636XXSP,2013-07-20 21:27:00,
2013-07-20 16:37:00,90.9,67.6,30.06,East,90,7.8,20.3,47,0.00,,,0.00,WUHU21636XXSP,2013-07-20 21:37:00,
2013-07-20 16:47:00,89.1,68.5,30.06,SE,135,7.6,26.8,51,0.00,,,0.00,WUHU21636XXSP,2013-07-20 21:47:00,
2013-07-20 16:58:00,89.4,68.9,30.06,ESE,112,9.6,25.2,51,0.00,,,0.00,WUHU21636XXSP,2013-07-20 21:58:00,
2013-07-20 17:08:00,89.1,68.5,30.06,SSE,157,10.2,20.8,52,0.00,,,0.00,WUHU21636XXSP,2013-07-20 22:08:00,
2013-07-20 17:18:00,88.9,68.4,30.05,SE,135,6.9,26.3,51,0.00,,,0.00,WUHU21636XXSP,2013-07-20 22:18:00,
2013-07-20 17:28:00,88.9,68.4,30.05,ESE,112,6.9,18.7,50,0.00,,,0.00,WUHU21636XXSP,2013-07-20 22:28:00,
2013-07-20 17:38:00,88.9,68.4,30.04,SE,135,8.7,15.8,50,0.00,,,0.00,WUHU21636XXSP,2013-07-20 22:38:00,
2013-07-20 17:48:00,88.9,68.4,30.04,ESE,112,5.3,18.7,51,0.00,,,0.00,WUHU21636XXSP,2013-07-20 22:48:00,
2013-07-20 17:58:00,88.7,68.7,30.04,ENE,67,10.2,18.5,52,0.00,,,0.00,WUHU21636XXSP,2013-07-20 22:58:00,
2013-07-20 18:08:00,88.2,68.7,30.04,SE,135,8.9,22.8,53,0.00,,,0.00,WUHU21636XXSP,2013-07-20 23:08:00,
2013-07-20 18:18:00,88.2,68.2,30.04,ESE,112,4.2,23.9,52,0.00,,,0.00,WUHU21636XXSP,2013-07-20 23:18:00,
2013-07-20 18:28:00,87.6,67.3,30.04,SSE,157,9.6,22.8,51,0.00,,,0.00,WUHU21636XXSP,2013-07-20 23:28:00,
2013-07-20 18:38:00,87.4,67.1,30.04,SE,135,2.4,17.4,51,0.00,,,0.00,WUHU21636XXSP,2013-07-20 23:38:00,
2013-07-20 18:48:00,86.7,66.4,30.04,SSE,157,2.6,22.3,51,0.00,,,0.00,WUHU21636XXSP,2013-07-20 23:48:00,
2013-07-20 18:58:00,85.8,66.6,30.04,SE,135,8.5,17.6,53,0.00,,,0.00,WUHU21636XXSP,2013-07-20 23:58:00,
2013-07-20 19:08:00,85.3,66.2,30.05,SE,135,7.6,17.4,53,0.00,,,0.00,WUHU21636XXSP,2013-07-21 00:08:00,
2013-07-20 19:18:00,84.6,66.0,30.05,SE,135,13.6,19.0,54,0.00,,,0.00,WUHU21636XXSP,2013-07-21 00:18:00,
2013-07-20 19:28:00,84.6,66.6,30.04,SE,135,5.8,18.3,55,0.00,,,0.00,WUHU21636XXSP,2013-07-21 00:28:00,
2013-07-20 19:38:00,84.6,67.1,30.04,SSE,157,3.1,16.5,56,0.00,,,0.00,WUHU21636XXSP,2013-07-21 00:38:00,
2013-07-20 19:48:00,84.4,66.9,30.05,SSE,157,3.1,5.3,56,0.00,,,0.00,WUHU21636XXSP,2013-07-21 00:48:00,
2013-07-20 19:59:00,83.8,65.8,30.04,South,180,3.1,12.5,55,0.00,,,0.00,WUHU21636XXSP,2013-07-21 00:59:00,
2013-07-20 20:09:00,83.3,65.8,30.04,SE,135,4.2,14.9,56,0.00,,,0.00,WUHU21636XXSP,2013-07-21 01:09:00,
2013-07-20 20:19:00,82.9,65.5,30.04,SSE,157,4.6,17.4,56,0.00,,,0.00,WUHU21636XXSP,2013-07-21 01:19:00,
2013-07-20 20:29:00,82.6,65.1,30.04,SSE,157,4.4,17.8,56,0.00,,,0.00,WUHU21636XXSP,2013-07-21 01:29:00,
2013-07-20 20:39:00,82.0,65.1,30.05,SSE,157,0.4,4.9,57,0.00,,,0.00,WUHU21636XXSP,2013-07-21 01:39:00,
2013-07-20 20:49:00,81.1,65.8,30.05,SSE,157,8.7,21.0,60,0.00,,,0.00,WUHU21636XXSP,2013-07-21 01:49:00,
2013-07-20 20:59:00,80.4,65.7,30.05,SE,135,3.1,10.5,61,0.00,,,0.00,WUHU21636XXSP,2013-07-21 01:59:00,
2013-07-20 21:09:00,80.2,66.0,30.05,ESE,112,4.9,18.7,62,0.00,,,0.00,WUHU21636XXSP,2013-07-21 02:09:00,
2013-07-20 21:19:00,79.7,65.5,30.06,SSE,157,4.9,19.6,62,0.00,,,0.00,WUHU21636XXSP,2013-07-21 02:19:00,
2013-07-20 21:29:00,79.3,65.1,30.06,SE,135,6.4,15.6,62,0.00,,,0.00,WUHU21636XXSP,2013-07-21 02:29:00,
2013-07-20 21:39:00,78.6,64.0,30.08,ESE,112,3.3,14.3,61,0.00,,,0.00,WUHU21636XXSP,2013-07-21 02:39:00,
2013-07-20 21:49:00,78.3,64.0,30.09,ESE,112,5.3,5.3,62,0.00,,,0.00,WUHU21636XXSP,2013-07-21 02:49:00,
2013-07-20 21:59:00,77.7,63.5,30.09,ESE,112,2.0,12.9,62,0.00,,,0.00,WUHU21636XXSP,2013-07-21 02:59:00,
2013-07-20 22:09:00,77.4,63.1,30.11,ESE,112,4.0,10.7,62,0.00,,,0.00,WUHU21636XXSP,2013-07-21 03:09:00,
2013-07-20 22:19:00,76.8,62.8,30.11,SE,135,2.2,4.0,62,0.00,,,0.00,WUHU21636XXSP,2013-07-21 03:19:00,
2013-07-20 22:29:00,76.5,63.3,30.11,ESE,112,4.0,4.4,64,0.00,,,0.00,WUHU21636XXSP,2013-07-21 03:29:00,
2013-07-20 22:39:00,76.1,63.3,30.11,ESE,112,3.1,6.4,65,0.00,,,0.00,WUHU21636XXSP,2013-07-21 03:39:00,
2013-07-20 22:49:00,75.7,63.5,30.12,ESE,112,3.5,6.7,66,0.00,,,0.00,WUHU21636XXSP,2013-07-21 03:49:00,
2013-07-20 22:59:00,75.7,63.5,30.11,SE,135,4.6,4.6,66,0.00,,,0.00,WUHU21636XXSP,2013-07-21 03:59:00,
2013-07-20 23:10:00,75.6,63.7,30.12,SE,135,3.3,7.6,67,0.00,,,0.00,WUHU21636XXSP,2013-07-21 04:10:00,
2013-07-20 23:20:00,75.6,63.7,30.12,East,90,1.3,3.3,67,0.00,,,0.00,WUHU21636XXSP,2013-07-21 04:20:00,
2013-07-20 23:30:00,75.6,63.7,30.13,East,90,1.1,1.7,67,0.00,,,0.00,WUHU21636XXSP,2013-07-21 04:30:00,
2013-07-20 23:40:00,75.6,63.7,30.15,ENE,67,4.2,8.7,67,0.00,,,0.00,WUHU21636XXSP,2013-07-21 04:40:00,
2013-07-20 23:50:00,73.2,59.7,30.18,NE,45,23.2,41.3,63,0.00,,,0.00,WUHU21636XXSP,2013-07-21 04:50:00,